Карточка аэропорта UUWW

Внимание!
Информация на этой странице в стадии наполнения.
Если вы не увидели какой-то информации, или заметили неточность - пожалуйста сообщите нам!
Спасибо!
Команда RU-STAFF
Название аэропортаВнуково
Название аэропорта (англ.)Vnukovo
Превышение686 ft. (209.1 m.)
Координаты55°35.952', 37°16.386'
Высота перехода10000 ft
Эшелон переходаFL110
Коды ответчика2101-2117
Зона ОрВДМосква РПИ (UUWV)
Данные METARUUWW 271100Z 19005MPS 110V220 9999 BKN018 M06/M10 Q1011 R24/510245 NOSIG
Проноз погоды (TAF)UUWW 270757Z 2709/2809 22003MPS 6000 -SN FEW005 BKN016 TXM05/2809Z TNM08/2718Z BECMG 2710/2713 16005MPS BECMG 2718/2720 FEW004 OVC009 TEMPO 2720/2809 18008G14MPS OVC004 PROB40 TEMPO 2720/2809 -FZDZ OVC003
NOTAMshow/hide NOTAM
AWOS   TABLE

Информация о ВПП

ВПП Длина ВПП (м.) Покрытие Курс ВПП Частота ILS
013060Асфальтобетон13111.7
193060Асфальтобетон193111.5
063500Цементобетон58108.9
243500Цементобетон238111.1

Диспетчерские позиции

Позывной Наименование органа УВД Частота
UUWW_TWRВнуково-Старт118.300
UUWW_TWRВнуково-Вышка122.300
UUWW_GNDВнуково-Руление120.450
UUWW_GNDВнуково-Руление121.700
UUWW_DELВнуково-Деливери131.800
UUWW_R_APPВнуково-Круг123.400
UUWW_R_APPВнуково-Круг126.000
UUWW_R_APPВнуково-Круг135.900



Спутниковое изображение